Overview Statistics Trail Chart Weather Telemetry Raw packets
 

This is the latest recevied weather packets stored in our database for station/object K7SKM. If no packets are shown the sender has not sent any weather packets the latest 10 day(s).

<< 30 31 32 33 34 35 36 >>
Time Temp. Humidity Pressure Rain* Wind** Luminosity Snow
1788470565 18.33° C 57% 1014.4 hPa 0 mm - 164 W/m² -
1788470263 17.78° C 60% 1014.3 hPa 0 mm - 151 W/m² -
1788469960 17.78° C 63% 1014.2 hPa 0 mm - 161 W/m² -
1788469656 17.22° C 66% 1014.3 hPa 0 mm - 191 W/m² -
1788469351 16.67° C 71% 1014.1 hPa 0 mm - 165 W/m² -
1788469045 16.67° C 72% 1014.3 hPa 0 mm - 120 W/m² -
1788468744 16.67° C 70% 1014.2 hPa 0 mm - 190 W/m² -
1788468440 16.67° C 71% 1014.3 hPa 0 mm - 392 W/m² -
1788468136 16.67° C 73% 1014.3 hPa 7.11 mm - 181 W/m² -
1788467831 17.78° C 67% 1014.3 hPa 7.11 mm - 112 W/m² -
1788467527 19.44° C 57% 1014.4 hPa 0 mm - 50 W/m² -
1788467220 19.44° C 55% 1014.2 hPa 0 mm - 86 W/m² -
1788466916 20° C 53% 1014.1 hPa 0 mm - 151 W/m² -
1788466615 19.44° C 54% 1014 hPa 0 mm - 184 W/m² -
1788466310 20° C 54% 1014 hPa 0 mm - 145 W/m² -
1788466005 19.44° C 54% 1014 hPa 0 mm - 311 W/m² -
1788465700 20° C 54% 1014.2 hPa 0 mm - 258 W/m² -
1788465396 19.44° C 56% 1014.2 hPa 0 mm - 290 W/m² -
1788465092 19.44° C 54% 1014.2 hPa 0 mm - 265 W/m² -
1788464787 20° C 55% 1014.2 hPa 0 mm - 272 W/m² -
1788464487 18.89° C 57% 1013.9 hPa 0 mm - 370 W/m² -
1788464183 18.89° C 58% 1014.1 hPa 0 mm - 460 W/m² -
1788463878 18.33° C 60% 1014.2 hPa 0 mm - 380 W/m² -
1788463574 17.78° C 61% 1014.1 hPa 0 mm - 229 W/m² -
1788463274 17.78° C 62% 1014.1 hPa 0 mm - 160 W/m² -

* Rain latest hour (hover to see other rain measurements)
** Current wind speed in m/s (hover to see current wind gust speed)